Location: Port Stanley
(42.6641°N, 81.2156°W)
Time: 18:59:11
(UTC-05:00)

ISS - Pass Details

Date: 30 June 2019
Orbit: 412 x 421 km, 51.6° (Epoch: 19 November)

Event Time Altitude Azimuth Distance (km) Brightness Sun altitude
Exits shadow 03:49:05 - 140° (SE) 1,599 -1.0 -16.6°
Enters shadow 04:46:01 -74° 239° (WSW) 12,685 3.6 -10.0°
Maximum altitude 05:26:07 73° 144° (SE) 442 -3.6 -4.4°
